Change the Weather History Date:

Saturday, March 30, 2013

  Actual Average Record
Temperature  
Mean Temperature 60 °F -  
Max Temperature 81 °F 65 °F 88 °F (1946)
Min Temperature 42 °F 33 °F 7 °F (1926)
Degree Days  
Heating Degree Days 4    
Growing Degree Days 10 (Base 50)    
Moisture  
Dew Point 20 °F    
Average Humidity 21    
Maximum Humidity 41    
Minimum Humidity 9    
Precipitation  
Precipitation 0.00 in - - ()
Sea Level Pressure  
Sea Level Pressure 29.88 in    
Wind  
Wind Speed 7 mph (West)    
Max Wind Speed 18 mph    
Max Gust Speed 18 mph    
Visibility 10 miles    
Events      
Averages and records for this station are not official NWS values.
T = Trace of Precipitation, MM = Missing Value Source: NWS Daily Summary

Daily Weather History Graph

Daily Weather History Graph

Search for Another Location

Airport or City:

Trip Planner

Search our weather history database for the weather conditions in past years. The results will help you decide how hot, cold, wet, or windy it might be!

Date:

Astronomy

Mar. 30, 2013 Rise Set
Actual Time 6:43 AM MDT 7:14 PM MDT
Civil Twilight 6:18 AM MDT 7:40 PM MDT
Nautical Twilight 5:48 AM MDT 8:10 PM MDT
Astronomical Twilight 5:17 AM MDT 8:40 PM MDT
Moon 11:14 PM MDT (3/30) 8:49 AM MDT (3/30)
Length of Visible Light 13h 21m
Length of Day
12h 30m
Waning Gibbous, 86% of the Moon is Illuminated
Mar 30
Waning Gibbous
Apr 2
Last Quarter
Apr 10
New
Apr 18
First Quarter
Apr 25
Full

Hourly Weather History & Observations

Time (MDT) Temp. Windchill Dew Point Humidity Pressure Visibility Wind Dir Wind Speed Gust Speed Precip Events Conditions
12:53 AM 48.0 °F - 18.0 °F 30% 29.96 in 10.0 mi Calm Calm - N/A   Clear
1:53 AM 46.9 °F - 19.9 °F 34% 29.95 in 10.0 mi North 5.8 mph - N/A   Clear
2:53 AM 45.0 °F 41.2 °F 19.9 °F 37% 29.94 in 10.0 mi West 6.9 mph - N/A   Clear
3:53 AM 51.1 °F - 23.0 °F 33% 29.92 in 10.0 mi NNW 12.7 mph - N/A   Clear
4:53 AM 50.0 °F - 24.1 °F 36% 29.92 in 10.0 mi NNW 5.8 mph - N/A   Clear
5:53 AM 42.1 °F 38.4 °F 19.9 °F 41% 29.95 in 10.0 mi SW 5.8 mph - N/A   Clear
6:53 AM 45.0 °F 40.1 °F 21.0 °F 39% 29.97 in 10.0 mi West 9.2 mph - N/A   Clear
7:53 AM 51.1 °F - 23.0 °F 33% 30.01 in 10.0 mi West 8.1 mph - N/A   Clear
8:53 AM 61.0 °F - 25.0 °F 25% 30.00 in 10.0 mi WNW 12.7 mph - N/A   Clear
9:53 AM 69.1 °F - 25.0 °F 19% 29.96 in 10.0 mi NNW 12.7 mph - N/A   Clear
10:53 AM 73.9 °F - 27.0 °F 18% 29.94 in 10.0 mi NNE 8.1 mph - N/A   Clear
11:53 AM 75.0 °F - 25.0 °F 16% 29.93 in 10.0 mi Variable 6.9 mph - N/A   Clear
12:53 PM 78.1 °F - 21.0 °F 12% 29.91 in 10.0 mi Calm Calm - N/A   Clear
1:53 PM 79.0 °F - 18.0 °F 10% 29.88 in 10.0 mi Variable 3.5 mph - N/A   Clear
2:53 PM 78.1 °F - 18.0 °F 10% 29.86 in 10.0 mi West 9.2 mph - N/A   Clear
3:53 PM 79.0 °F - 15.1 °F 9% 29.83 in 10.0 mi SW 8.1 mph 18.4 mph N/A   Clear
4:53 PM 79.0 °F - 16.0 °F 9% 29.79 in 10.0 mi SE 8.1 mph - N/A   Clear
5:53 PM 78.1 °F - 15.1 °F 9% 29.79 in 10.0 mi SE 9.2 mph - N/A   Clear
6:53 PM 73.9 °F - 16.0 °F 11% 29.79 in 10.0 mi SE 8.1 mph - N/A   Clear
7:53 PM 68.0 °F - 16.0 °F 14% 29.79 in 10.0 mi SE 8.1 mph - N/A   Clear
8:53 PM 66.0 °F - 17.1 °F 15% 29.79 in 10.0 mi SSE 8.1 mph - N/A   Clear
9:53 PM 63.0 °F - 17.1 °F 17% 29.78 in 10.0 mi South 4.6 mph - N/A   Clear
10:53 PM 72.0 °F - 16.0 °F 12% 29.74 in 10.0 mi West 18.4 mph - N/A   Clear
11:53 PM 66.0 °F - 17.1 °F 15% 29.77 in 10.0 mi WNW 12.7 mph - N/A   Clear